Wind_Speed
16 16 14 13 13 15 5 2 3 3 4 4 5 5 6 4 3 3 3 2 2 3 2 3 3 4 5 6 6 7 9 10 10 10 10 9 9 8 8 8 7 7 7 7 7 7 7 8 8
13 12 10 10 13 11 3 5 4 4 4 5 6 6 6 5 5 4 4 4 4 4 4 4 5 5 6 6 7 8 9 10 11 11 11 11 10 9 9 8 8 7 7 7 7 7 6 6 6
9 8 8 10 12 7 5 6 5 5 4 5 6 6 6 5 5 5 5 5 5 6 6 6 7 7 7 8 9 10 10 11 12 12 12 12 11 11 10 10 9 9 8 8 8 7 7 7 6
6 6 6 9 5 3 6 7 5 6 6 6 7 7 7 7 6 6 6 6 6 7 7 8 9 9 9 10 10 11 12 13 13 14 14 13 13 12 12 11 11 11 10 10 10 9 8 8 8
4 3 7 6 1 2 7 7 7 8 8 8 9 8 8 8 8 8 7 7 7 8 8 9 9 10 10 11 12 13 13 14 14 15 15 14 14 13 13 13 13 12 12 12 12 11 11 10 10
5 4 3 9 7 4 8 9 8 9 9 9 10 10 10 10 10 9 9 9 9 8 9 9 10 10 11 11 13 13 14 15 16 16 16 16 16 15 15 15 15 15 15 14 14 14 13 13 13
7 6 2 6 10 8 11 10 10 11 9 10 12 12 11 11 10 10 10 10 10 9 9 9 10 11 12 13 14 15 16 17 18 18 18 18 18 18 18 17 17 17 17 17 17 16 16 16 16
9 8 5 4 12 11 12 11 12 14 13 12 12 14 12 11 10 10 10 10 10 10 10 11 12 14 15 16 17 18 19 20 21 21 21 21 21 21 21 20 20 20 20 20 20 20 19 19 19
12 10 5 5 12 11 11 10 11 15 16 15 15 15 13 11 10 10 10 10 11 12 13 14 15 16 17 18 19 20 21 22 23 23 23 24 24 24 24 23 23 23 23 23 23 23 23 23 23
15 13 8 8 12 10 11 10 12 13 15 17 17 14 13 12 12 11 12 13 14 15 16 16 18 19 20 20 22 22 23 24 24 24 25 26 26 26 26 26 26 26 26 26 26 26 26 27 26
18 17 15 15 17 19 16 13 14 13 17 22 22 16 12 14 15 15 15 15 16 17 19 20 20 21 22 23 24 24 25 25 25 26 26 27 27 27 27 27 28 29 29 29 29 29 29 30 30
21 21 22 23 23 23 21 18 16 15 21 26 27 21 14 16 18 18 18 19 19 21 22 23 24 25 25 26 26 26 26 26 26 26 26 27 27 28 28 29 30 30 31 31 32 33 32 32 33
23 24 25 25 25 24 23 20 19 19 23 27 28 27 22 20 22 22 22 23 23 24 25 27 27 28 29 29 29 28 28 28 28 28 28 28 28 29 29 29 30 31 31 31 32 32 32 33 34
24 26 26 25 25 25 24 21 21 20 25 27 28 29 27 25 26 26 26 27 27 28 29 30 31 31 31 31 30 30 29 29 30 30 29 29 29 29 29 29 30 30 31 31 30 31 31 32 33
24 25 26 25 24 23 24 23 21 20 25 27 28 29 29 29 28 29 30 30 31 32 32 32 33 33 33 33 32 31 31 31 30 30 30 29 28 28 28 29 29 29 29 29 30 30 31 31 31
19 21 22 20 19 19 23 24 21 21 28 30 30 30 30 32 31 32 33 33 34 35 35 35 36 35 35 34 33 33 32 31 30 30 29 28 27 28 29 29 29 29 28 29 29 29 30 30 30
12 15 15 13 15 19 23 23 22 25 29 32 33 31 31 34 35 35 35 35 36 37 36 36 37 37 36 35 34 34 32 31 31 30 29 28 28 28 28 28 28 27 27 28 28 28 29 29 29
9 11 12 12 15 23 24 23 22 26 30 32 32 33 34 34 35 35 36 38 38 37 37 37 37 37 37 36 35 34 32 31 30 29 29 28 27 27 27 27 26 26 26 27 27 28 28 28 28
16 16 13 13 21 28 27 23 23 28 33 34 34 35 37 36 38 38 39 38 37 38 37 36 38 38 38 38 36 34 33 32 31 30 29 28 27 27 26 26 26 26 26 26 27 27 27 27 28
12 12 13 15 21 28 29 25 24 29 30 31 32 34 35 37 38 37 37 38 37 37 36 36 37 37 37 38 36 36 33 32 31 30 29 28 27 27 26 26 26 26 26 26 26 27 26 27 28
5 9 13 17 20 21 19 19 20 25 26 26 25 27 31 34 36 35 36 36 36 36 36 35 36 37 38 37 37 36 34 32 31 30 29 28 28 27 27 27 27 27 26 27 27 27 27 27 28
10 14 16 17 19 17 15 18 19 24 28 28 24 25 28 30 29 30 33 34 34 34 36 36 37 38 38 37 37 35 34 33 32 31 29 28 28 28 28 28 29 29 28 28 28 28 28 28 28
12 15 14 13 14 14 14 17 21 26 27 27 24 26 28 25 26 29 31 32 32 35 35 36 37 38 38 38 38 37 35 34 33 32 30 30 29 29 29 30 30 30 30 30 30 29 29 29 29
9 9 8 11 14 18 20 20 21 24 25 27 28 30 31 30 28 29 31 32 33 34 35 35 37 38 39 39 40 38 37 35 35 34 33 32 32 31 31 31 31 32 32 32 31 31 31 31 31
12 10 11 17 19 20 16 12 18 21 23 26 29 31 31 31 30 31 31 32 33 34 35 37 39 40 41 41 41 40 39 38 37 36 36 35 34 34 33 33 33 33 34 34 33 33 33 32 32
10 9 11 16 18 20 22 16 19 23 24 25 26 28 31 33 34 34 35 36 37 38 39 41 42 43 44 44 44 44 44 43 42 41 40 38 37 37 37 36 36 36 36 36 35 35 34 34 33
10 9 11 14 14 13 16 24 27 24 24 24 25 29 33 36 37 38 39 40 42 43 44 45 46 47 48 48 49 49 48 48 47 46 44 43 42 41 40 39 38 38 38 38 37 37 36 35 35
12 13 13 15 16 15 15 27 31 33 29 27 30 34 36 38 40 41 42 43 44 46 48 48 50 51 52 52 53 53 53 53 53 52 51 49 47 45 44 42 42 40 39 40 39 38 38 37 36
12 13 14 18 19 20 21 27 32 33 33 33 37 39 41 43 45 47 48 47 48 49 51 52 53 54 55 56 56 57 57 57 57 56 55 53 52 50 48 47 45 44 42 41 40 40 39 38 37
13 15 17 19 20 21 23 29 32 34 35 37 42 44 46 47 49 51 52 52 52 53 54 55 56 57 58 59 59 60 60 61 60 60 59 58 57 55 53 51 50 48 46 44 42 41 40 39 37
Wind_Direction
85 86 90 92 87 72 58 280 233 246 242 233 230 237 248 266 283 275 277 289 311 319 336 342 342 348 353 354 352 350 349 349 349 348 350 351 351 351 351 352 353 356 358 1 5 10 15 19 19
90 93 95 88 73 76 6 315 303 290 270 248 239 242 254 253 257 259 269 279 287 296 303 311 317 322 327 331 332 333 335 337 338 338 339 339 338 338 338 338 337 337 338 340 342 346 353 360 4
98 95 88 71 52 43 342 326 331 309 288 274 261 257 260 255 252 254 265 270 278 288 294 299 304 309 314 318 321 323 324 327 329 331 331 330 329 327 328 328 327 325 323 323 324 327 331 335 338
108 95 79 65 58 3 322 331 342 315 300 284 275 266 263 259 257 261 263 269 278 288 292 296 301 306 312 316 319 321 322 323 324 326 326 325 323 322 320 319 318 317 315 313 312 312 312 315 317
153 130 51 0 2 337 310 321 325 316 309 295 284 274 269 268 268 269 270 275 281 288 292 297 302 309 314 318 319 320 321 321 321 321 321 320 319 317 315 313 311 309 308 306 304 303 302 302 303
202 176 32 307 306 308 297 306 309 310 314 301 292 282 276 274 274 275 276 278 282 288 292 298 304 310 315 317 318 318 318 318 317 317 316 315 313 311 309 307 305 304 303 301 300 299 297 296 296
230 218 170 310 304 297 287 295 293 296 293 294 295 287 280 277 280 280 282 283 285 290 296 302 307 310 312 313 313 314 314 313 312 311 311 310 309 307 304 303 300 299 298 297 296 295 294 293 292
241 231 196 285 283 274 275 283 286 286 286 291 289 284 282 281 280 281 284 288 291 296 302 307 310 310 310 311 311 311 310 309 308 308 307 305 304 302 301 298 297 295 294 293 292 291 289 288 287
242 231 204 277 275 270 273 277 281 282 290 291 283 282 281 278 279 282 284 290 296 300 304 309 311 311 311 310 309 309 308 307 306 304 303 301 300 298 297 295 293 292 290 288 287 287 285 284 283
239 228 206 252 259 257 268 278 274 283 289 284 272 265 273 278 280 282 286 291 296 301 305 308 311 312 312 311 310 309 307 306 304 302 300 299 297 296 294 293 292 290 288 286 283 282 281 280 279
241 231 219 229 246 244 249 264 271 273 271 272 268 259 263 278 281 283 286 291 296 301 304 307 310 312 312 311 311 308 306 305 303 301 300 298 296 294 292 290 289 288 286 285 283 281 278 276 275
245 241 234 232 241 249 249 250 257 261 264 269 274 277 277 280 283 284 286 290 295 300 304 307 309 311 312 312 311 309 306 304 302 300 298 296 294 293 292 290 288 286 285 283 282 280 279 277 275
246 247 247 247 251 253 254 251 253 256 263 268 273 283 282 282 281 283 286 290 294 299 302 306 307 309 311 312 311 309 307 307 305 302 300 297 294 293 292 290 289 288 286 285 284 281 280 281 280
252 248 248 249 252 256 258 256 255 257 266 270 275 280 280 282 280 281 286 290 294 297 300 303 305 307 309 310 310 309 307 306 304 302 300 297 294 292 291 290 290 288 287 287 286 283 284 285 282
259 259 258 256 257 260 262 260 259 259 263 267 272 276 280 281 280 282 286 290 293 295 297 301 302 304 306 306 307 307 306 304 302 301 299 297 293 291 290 290 290 289 289 290 289 286 284 284 283
269 267 264 261 263 263 261 260 259 254 258 261 265 270 276 276 278 281 285 289 291 293 295 297 299 300 302 303 304 303 303 302 301 299 298 296 292 290 290 290 290 290 290 290 289 288 288 287 286
290 291 287 276 264 252 252 259 259 255 259 265 267 269 272 272 277 279 283 287 288 290 291 293 295 296 298 299 300 301 300 300 300 298 297 294 292 290 289 289 290 290 290 290 290 291 290 291 290
266 266 275 273 249 246 250 255 257 255 259 264 268 271 273 271 276 279 282 285 286 287 288 290 293 293 295 296 297 298 297 298 297 296 296 294 291 289 288 288 289 289 291 291 292 293 294 295 293
243 227 223 235 242 247 253 259 257 253 257 264 268 271 273 272 277 280 281 282 283 285 285 287 288 289 291 294 295 296 296 296 295 294 293 291 289 288 287 288 289 289 291 293 293 295 296 296 295
255 246 236 241 253 258 261 265 263 262 266 267 269 272 274 276 277 279 280 282 280 283 283 283 284 287 289 292 293 294 294 295 294 294 292 290 288 288 288 288 288 288 290 292 294 295 296 297 297
272 254 248 245 252 265 278 275 268 270 271 275 274 273 277 276 275 276 278 277 277 280 283 282 284 286 288 290 292 292 292 294 294 292 290 289 289 289 288 288 287 288 290 291 292 294 295 296 296
263 244 246 255 261 265 266 270 273 271 271 273 274 276 281 276 274 277 278 276 275 279 281 281 283 286 288 288 290 289 290 292 292 291 289 288 288 287 287 287 286 286 287 289 290 292 294 295 295
273 271 271 275 274 267 257 261 263 264 266 275 276 286 288 285 286 283 280 278 280 282 281 283 284 286 287 288 289 289 290 291 291 290 290 289 288 286 286 285 285 285 286 288 289 290 291 294 295
295 293 288 289 279 269 255 243 251 262 275 283 289 294 294 296 295 290 287 283 282 282 283 284 285 286 286 287 288 289 289 289 289 288 288 287 286 285 284 283 283 283 284 286 287 288 289 292 293
292 293 299 303 305 297 293 259 252 267 280 287 292 296 299 298 294 293 290 288 286 285 285 286 286 287 287 288 288 287 286 286 286 286 286 284 282 282 282 282 282 282 282 283 284 285 287 289 290
302 303 305 306 313 322 321 303 279 273 272 280 289 297 301 301 299 296 293 290 289 289 287 287 286 286 286 286 286 286 285 285 284 283 282 281 279 279 279 280 280 281 281 281 281 282 284 286 287
322 311 298 299 305 307 305 295 289 283 276 281 289 298 302 301 299 297 295 293 292 290 288 286 285 284 284 284 284 284 284 283 282 282 280 279 277 276 276 277 278 278 279 279 279 280 281 282 284
318 320 316 311 307 300 297 296 297 300 302 298 299 300 300 299 297 295 294 292 290 288 287 286 285 283 282 281 281 281 281 281 280 279 279 278 277 276 275 274 275 275 275 276 275 276 278 279 281
296 305 304 302 303 299 297 294 293 299 300 300 300 300 299 298 296 295 294 292 290 288 287 285 284 282 281 280 279 279 279 279 278 277 277 277 276 275 275 273 272 272 272 273 273 273 274 275 277
302 315 317 312 309 305 303 295 296 297 296 296 297 298 297 297 296 295 294 293 291 289 288 286 284 283 281 280 279 278 277 277 277 276 276 275 275 273 273 272 270 269 269 269 270 270 271 272 274
Height
5923 5923 5923 5924 5923 5922 5924 5924 5923 5922 5921 5921 5920 5920 5919 5920 5921 5923 5921 5919 5920 5919 5919 5919 5919 5919 5919 5918 5917 5917 5916 5916 5915 5914 5913 5912 5911 5910 5908 5907 5906 5905 5904 5903 5902 5902 5901 5900 5899
5925 5926 5926 5925 5923 5924 5925 5924 5923 5922 5921 5920 5920 5920 5919 5920 5920 5920 5919 5920 5920 5919 5919 5919 5919 5919 5918 5918 5917 5917 5916 5916 5915 5914 5913 5912 5911 5910 5909 5908 5907 5905 5905 5904 5903 5902 5901 5900 5899
5926 5927 5927 5925 5925 5926 5926 5924 5923 5922 5921 5921 5920 5920 5920 5920 5920 5919 5919 5919 5919 5919 5919 5918 5918 5918 5918 5917 5917 5916 5916 5915 5914 5914 5913 5912 5911 5910 5908 5907 5906 5905 5904 5904 5903 5902 5901 5901 5900
5927 5928 5927 5927 5927 5927 5927 5925 5924 5922 5922 5921 5920 5920 5919 5919 5919 5919 5918 5918 5919 5918 5918 5918 5917 5917 5917 5916 5916 5915 5915 5914 5914 5913 5912 5911 5910 5909 5908 5907 5906 5905 5904 5903 5902 5902 5901 5900 5899
5927 5927 5927 5927 5926 5926 5926 5925 5923 5922 5922 5920 5920 5920 5919 5919 5919 5918 5918 5918 5918 5917 5917 5917 5916 5916 5916 5915 5915 5914 5913 5913 5912 5911 5910 5909 5908 5907 5906 5905 5904 5903 5902 5902 5901 5900 5900 5899 5898
5926 5926 5928 5928 5925 5924 5924 5924 5923 5922 5921 5920 5919 5919 5918 5918 5918 5917 5916 5916 5916 5916 5916 5915 5915 5915 5914 5914 5913 5912 5912 5911 5910 5909 5908 5907 5906 5905 5904 5903 5902 5901 5901 5900 5899 5899 5898 5897 5897
5926 5926 5926 5928 5927 5925 5924 5923 5922 5921 5921 5920 5918 5917 5917 5916 5916 5916 5915 5915 5914 5915 5914 5914 5913 5913 5912 5912 5911 5911 5910 5909 5908 5907 5906 5905 5904 5903 5902 5900 5900 5899 5898 5897 5897 5896 5896 5895 5894
5923 5925 5926 5929 5928 5925 5922 5922 5921 5919 5918 5918 5917 5915 5915 5915 5915 5914 5913 5913 5913 5913 5913 5912 5912 5911 5910 5910 5909 5908 5907 5906 5905 5904 5903 5901 5900 5899 5898 5897 5896 5896 5895 5894 5894 5893 5893 5892 5891
5920 5923 5924 5928 5926 5922 5920 5921 5920 5918 5917 5916 5914 5914 5913 5913 5912 5912 5912 5911 5911 5911 5910 5910 5909 5908 5907 5907 5906 5905 5904 5902 5901 5900 5899 5897 5896 5895 5894 5893 5892 5891 5891 5890 5890 5889 5888 5888 5887
5916 5919 5922 5924 5923 5921 5920 5920 5919 5917 5914 5911 5910 5910 5910 5910 5910 5910 5910 5909 5909 5908 5908 5907 5906 5905 5904 5904 5902 5901 5900 5898 5897 5896 5894 5893 5891 5890 5889 5888 5887 5886 5885 5885 5884 5884 5883 5883 5882
5911 5914 5916 5918 5918 5917 5918 5919 5917 5917 5912 5908 5905 5905 5907 5908 5907 5907 5907 5906 5906 5905 5904 5903 5903 5902 5900 5899 5898 5897 5895 5894 5892 5891 5889 5887 5886 5884 5883 5883 5882 5880 5879 5878 5878 5877 5877 5876 5876
5907 5909 5910 5911 5912 5913 5914 5915 5915 5914 5909 5906 5901 5900 5902 5904 5904 5903 5903 5903 5902 5901 5900 5899 5898 5897 5896 5895 5893 5892 5890 5889 5887 5886 5884 5882 5881 5879 5878 5877 5876 5874 5873 5872 5871 5870 5869 5869 5869
5901 5904 5905 5906 5907 5908 5908 5910 5911 5909 5905 5902 5899 5898 5899 5898 5900 5900 5899 5899 5898 5897 5896 5895 5894 5893 5891 5889 5888 5886 5884 5883 5881 5879 5878 5876 5874 5873 5871 5870 5869 5867 5866 5865 5864 5862 5861 5861 5861
5896 5897 5898 5900 5902 5903 5904 5905 5906 5906 5903 5900 5897 5895 5895 5895 5895 5894 5894 5894 5893 5892 5891 5889 5888 5887 5886 5884 5883 5881 5879 5877 5876 5874 5872 5870 5868 5867 5865 5864 5862 5861 5859 5858 5857 5856 5855 5855 5854
5891 5892 5894 5895 5896 5898 5899 5900 5902 5903 5899 5897 5895 5893 5891 5890 5889 5888 5888 5888 5887 5886 5885 5883 5882 5882 5880 5879 5877 5875 5874 5872 5870 5868 5866 5864 5862 5861 5859 5857 5856 5854 5853 5851 5850 5849 5848 5847 5847
5887 5888 5889 5891 5893 5894 5896 5897 5898 5897 5894 5892 5890 5888 5887 5885 5883 5883 5882 5882 5881 5880 5879 5878 5876 5875 5874 5872 5871 5869 5868 5866 5864 5862 5860 5858 5856 5855 5853 5851 5849 5848 5846 5845 5843 5842 5841 5840 5839
5884 5884 5886 5889 5891 5891 5892 5892 5892 5890 5889 5887 5885 5883 5883 5879 5878 5877 5876 5876 5875 5874 5872 5872 5870 5868 5867 5866 5864 5863 5861 5859 5857 5855 5854 5852 5850 5848 5847 5845 5843 5842 5840 5839 5837 5836 5835 5834 5832
5883 5886 5888 5889 5888 5886 5885 5886 5886 5885 5883 5882 5880 5878 5877 5873 5871 5869 5868 5868 5867 5866 5866 5865 5863 5862 5860 5858 5857 5855 5854 5852 5851 5849 5847 5846 5844 5842 5840 5839 5837 5836 5834 5833 5831 5830 5828 5827 5825
5878 5880 5882 5885 5881 5880 5879 5879 5880 5878 5877 5877 5875 5873 5870 5867 5865 5863 5861 5860 5858 5858 5857 5856 5856 5855 5853 5852 5850 5849 5847 5846 5844 5843 5841 5839 5838 5836 5834 5833 5831 5830 5828 5827 5825 5824 5822 5820 5818
5874 5876 5878 5879 5876 5874 5874 5874 5874 5871 5870 5869 5869 5867 5863 5861 5859 5856 5854 5853 5852 5851 5849 5847 5847 5847 5845 5845 5843 5841 5840 5838 5837 5836 5834 5832 5831 5829 5828 5826 5825 5823 5822 5820 5819 5817 5816 5814 5812
5873 5874 5873 5872 5870 5869 5870 5869 5868 5865 5863 5862 5860 5859 5857 5854 5851 5849 5849 5846 5844 5845 5843 5841 5839 5838 5838 5837 5836 5834 5833 5831 5830 5828 5827 5825 5824 5822 5821 5819 5818 5817 5816 5814 5813 5811 5810 5808 5806
5869 5867 5867 5867 5866 5866 5868 5866 5864 5860 5857 5854 5851 5851 5849 5845 5842 5843 5842 5838 5836 5837 5836 5835 5833 5831 5830 5829 5828 5827 5825 5824 5822 5820 5819 5818 5817 5815 5814 5813 5811 5810 5809 5808 5806 5805 5803 5802 5800
5865 5864 5863 5863 5862 5861 5862 5862 5860 5853 5851 5849 5846 5845 5842 5837 5836 5837 5835 5831 5829 5831 5829 5828 5826 5825 5823 5821 5820 5819 5817 5816 5814 5813 5811 5810 5809 5808 5807 5805 5804 5803 5802 5801 5799 5798 5796 5795 5793
5863 5862 5861 5859 5857 5856 5854 5854 5851 5848 5847 5845 5843 5841 5839 5835 5833 5832 5830 5827 5825 5824 5822 5820 5819 5817 5815 5813 5812 5810 5808 5807 5806 5804 5803 5802 5801 5800 5799 5797 5796 5795 5794 5793 5792 5791 5789 5787 5786
5861 5860 5859 5856 5852 5848 5846 5847 5847 5846 5844 5842 5839 5837 5835 5832 5830 5827 5824 5820 5817 5816 5815 5812 5811 5809 5807 5804 5802 5800 5799 5798 5796 5795 5794 5793 5792 5790 5790 5789 5788 5787 5786 5785 5784 5783 5781 5780 5778
5859 5859 5859 5855 5852 5850 5845 5844 5843 5841 5839 5837 5835 5832 5830 5827 5824 5821 5818 5815 5812 5810 5807 5804 5802 5799 5797 5794 5792 5790 5788 5787 5786 5784 5784 5783 5782 5781 5780 5780 5779 5778 5777 5776 5775 5774 5773 5772 5770
5858 5857 5856 5854 5852 5851 5850 5842 5837 5832 5831 5832 5831 5829 5826 5822 5818 5814 5811 5807 5804 5801 5798 5795 5792 5789 5786 5783 5781 5778 5777 5775 5774 5772 5772 5771 5771 5770 5770 5769 5768 5768 5767 5766 5766 5765 5764 5763 5762
5858 5856 5854 5852 5849 5847 5847 5840 5834 5830 5825 5825 5824 5822 5819 5815 5810 5806 5802 5798 5795 5791 5787 5784 5780 5777 5774 5771 5768 5765 5764 5762 5761 5759 5758 5757 5757 5757 5757 5757 5757 5756 5756 5756 5755 5755 5754 5753 5753
5855 5854 5852 5850 5847 5845 5842 5839 5832 5828 5824 5819 5816 5814 5810 5806 5800 5795 5791 5787 5783 5779 5774 5770 5767 5763 5760 5757 5754 5751 5749 5747 5745 5744 5743 5743 5742 5743 5743 5743 5744 5744 5744 5744 5744 5744 5744 5743 5743
5851 5850 5849 5847 5844 5841 5838 5836 5828 5824 5820 5815 5810 5805 5801 5796 5790 5785 5779 5775 5770 5765 5761 5756 5752 5748 5744 5741 5738 5735 5732 5730 5729 5728 5727 5726 5726 5727 5728 5728 5729 5730 5731 5731 5732 5732 5732 5732 5733